TimeCDT,TemperatureF,Dew PointF,Humidity,Sea Level PressureIn,VisibilityMPH,Wind Direction,Wind SpeedMPH,Gust SpeedMPH,PrecipitationIn,Events,Conditions,WindDirDegrees,DateUTC
12:54 AM,30.9,28.0,89,29.91,10.0,Calm,Calm,-,N/A,,Overcast,0,2013-04-07 05:54:00
1:35 AM,30.2,26.6,86,29.85,10.0,Calm,Calm,-,N/A,,Overcast,0,2013-04-07 06:35:00
1:54 AM,30.9,27.0,85,29.92,10.0,Calm,Calm,-,N/A,,Overcast,0,2013-04-07 06:54:00
2:54 AM,30.9,27.0,85,29.91,10.0,Calm,Calm,-,0.00,,Overcast,0,2013-04-07 07:54:00
3:54 AM,30.0,27.0,88,29.89,10.0,Calm,Calm,-,N/A,,Overcast,0,2013-04-07 08:54:00
4:54 AM,30.0,28.0,92,29.87,10.0,ESE,3.5,-,N/A,,Overcast,120,2013-04-07 09:54:00
5:35 AM,30.2,28.4,93,29.81,9.0,ESE,3.5,-,N/A,,Overcast,110,2013-04-07 10:35:00
5:54 AM,30.0,28.0,92,29.87,9.0,East,3.5,-,N/A,,Overcast,100,2013-04-07 10:54:00
6:02 AM,30.2,28.4,93,29.80,8.0,East,4.6,-,N/A,,Overcast,100,2013-04-07 11:02:00
6:34 AM,30.2,28.4,93,29.82,10.0,Calm,Calm,-,N/A,,Overcast,0,2013-04-07 11:34:00
6:54 AM,30.0,28.0,92,29.88,9.0,Calm,Calm,-,N/A,,Overcast,0,2013-04-07 11:54:00
7:54 AM,30.0,28.0,92,29.86,7.0,ESE,8.1,-,N/A,,Overcast,110,2013-04-07 12:54:00
8:01 AM,30.2,28.4,93,29.78,7.0,ESE,8.1,-,N/A,,Overcast,110,2013-04-07 13:01:00
8:30 AM,30.2,28.4,93,29.77,1.8,SE,10.4,-,0.00,Snow,Light Snow,130,2013-04-07 13:30:00
8:35 AM,30.2,28.4,93,29.77,0.8,SE,9.2,-,0.00,Snow,Light Snow,130,2013-04-07 13:35:00
8:54 AM,30.0,28.9,96,29.83,0.8,ESE,9.2,-,0.02,Snow,Light Snow,120,2013-04-07 13:54:00
9:20 AM,30.2,30.2,100,29.75,0.2,ESE,9.2,-,0.04,Fog-Snow,Heavy Snow,120,2013-04-07 14:20:00
9:35 AM,30.2,30.2,100,29.74,0.5,SE,9.2,-,0.05,Fog-Snow,Snow,130,2013-04-07 14:35:00
9:52 AM,30.2,30.2,100,29.72,1.8,ESE,13.8,-,0.06,Snow,Light Snow,120,2013-04-07 14:52:00
9:54 AM,30.9,30.0,96,29.79,1.8,ESE,12.7,-,0.06,Snow,Light Snow,120,2013-04-07 14:54:00
10:02 AM,30.2,30.2,100,29.73,2.5,ESE,11.5,-,0.00,Snow,Light Snow,120,2013-04-07 15:02:00
10:12 AM,32.0,30.2,93,29.73,3.0,ESE,8.1,-,0.00,,Overcast,120,2013-04-07 15:12:00
10:28 AM,32.0,30.2,93,29.72,4.0,ESE,8.1,-,0.00,Snow,Light Snow,120,2013-04-07 15:28:00
10:54 AM,33.1,30.9,92,29.78,5.0,ESE,9.2,-,0.00,,Overcast,120,2013-04-07 15:54:00
11:54 AM,34.0,30.0,85,29.78,8.0,SE,12.7,-,N/A,,Overcast,140,2013-04-07 16:54:00
12:13 PM,33.8,30.2,87,29.72,8.0,SSE,9.2,-,N/A,,Overcast,150,2013-04-07 17:13:00
12:21 PM,33.8,30.2,87,29.72,8.0,SSE,8.1,-,N/A,,Overcast,150,2013-04-07 17:21:00
12:54 PM,35.1,30.9,85,29.77,8.0,SSE,8.1,-,N/A,,Overcast,150,2013-04-07 17:54:00
1:54 PM,35.1,30.9,85,29.76,7.0,SSE,9.2,-,N/A,,Overcast,150,2013-04-07 18:54:00
2:01 PM,35.6,32.0,87,29.70,7.0,SE,9.2,-,N/A,,Overcast,140,2013-04-07 19:01:00
2:54 PM,36.0,32.0,86,29.74,7.0,SE,8.1,-,N/A,,Overcast,130,2013-04-07 19:54:00
3:54 PM,36.0,32.0,86,29.73,9.0,SE,10.4,-,N/A,,Overcast,130,2013-04-07 20:54:00
4:54 PM,36.0,32.0,86,29.73,10.0,ESE,10.4,-,N/A,,Overcast,110,2013-04-07 21:54:00
5:54 PM,35.1,32.0,89,29.73,10.0,ESE,12.7,-,N/A,,Overcast,110,2013-04-07 22:54:00
6:54 PM,34.0,30.9,89,29.74,10.0,ESE,12.7,-,N/A,,Overcast,110,2013-04-07 23:54:00
7:54 PM,34.0,30.9,89,29.75,10.0,East,11.5,-,N/A,,Overcast,100,2013-04-08 00:54:00
8:33 PM,33.8,30.2,87,29.69,10.0,East,10.4,-,N/A,,Overcast,100,2013-04-08 01:33:00
8:54 PM,33.1,30.9,92,29.76,10.0,East,9.2,-,N/A,,Overcast,100,2013-04-08 01:54:00
9:28 PM,33.8,30.2,87,29.71,10.0,East,11.5,-,N/A,,Overcast,100,2013-04-08 02:28:00
9:54 PM,33.1,30.9,92,29.78,10.0,East,9.2,-,N/A,,Overcast,100,2013-04-08 02:54:00
10:54 PM,33.1,30.9,92,29.80,8.0,East,6.9,-,N/A,,Overcast,80,2013-04-08 03:54:00
11:25 PM,32.0,30.2,93,29.75,7.0,East,9.2,-,N/A,,Overcast,80,2013-04-08 04:25:00
11:54 PM,32.0,30.9,96,29.81,7.0,East,10.4,-,N/A,,Overcast,80,2013-04-08 04:54:00